Location: Mohawk View
(42.7837°N, 73.7885°W)
Time: 13:30:17
(UTC+00:00)

ARIANE 5 R/B - Pass Details

Date: 17 June 2021
Orbit: 748 x 795 km, 98.7° (Epoch: 30 July)

Event Time Altitude Azimuth Distance (km) Brightness Sun altitude
Rises 08:00:45 0° 15° (NNE) 3,206 6.9 -11.4°
Reaches altitude 10° 08:03:03 10° 18° (NNE) 2,277 6.1 -11.1°
Maximum altitude 08:08:03 72° 103° (ESE) 789 2.7 -10.4°
Drops below altitude 10° 08:13:01 10° 188° (S) 2,268 4.5 -9.8°
Enters shadow 08:13:51 - 189° (S) 2,601 4.8 -9.7°
